Simultaneous Nadir Overpasses (SNOs) Predictions

Prediction of SNOs between LANDSAT-8 and METOP-B Satellite Orbit:

Table of predicted SNOs for the next 14.0 days since TLE Epoch: 2/10/2024
Index Date (LANDSAT-8) Time (LANDSAT-8) Lat,Lon (LANDSAT-8) SZA (LANDSAT-8 ) Date (METOP-B) Time (METOP-B) Lat,Lon (METOP-B) SZA (METOP-B ) Distance(km) Time Diff (sec)
1 02/12/2024 21:38:05 81.30,-102.05 96.77 02/12/2024 21:37:28 81.29,-101.95 96.76 1.78 37
2 02/12/2024 22:27:32 -81.29, 65.52 83.26 02/12/2024 22:28:09 -81.29, 65.44 83.25 1.28 37
3 02/15/2024 17:12:18 81.29, -35.73 95.81 02/15/2024 17:11:54 81.29, -35.81 95.79 1.52 24
4 02/15/2024 18:01:44 -81.31, 132.24 84.17 02/15/2024 18:02:33 -81.31, 132.38 84.13 2.39 49
5 02/18/2024 12:46:31 81.29, 30.70 94.83 02/18/2024 12:46:20 81.29, 30.60 94.82 1.70 11
6 02/18/2024 13:35:57 -81.31,-161.33 85.14 02/18/2024 13:36:59 -81.31,-161.19 85.10 2.37 62
7 02/21/2024 07:31:17 -81.29, -70.45 86.15 02/21/2024 07:30:06 -81.28, -70.55 86.19 1.97 71
8 02/21/2024 08:20:43 81.29, 97.22 93.85 02/21/2024 08:20:45 81.30, 97.29 93.86 1.26 2



Historial Predications of SNOs between LANDSAT-8 and METOP-B
